Starlink 5577

operational
NORAD ID: 55751 Int'l Des: 2023-028 Owner: SPXS Country: US Constellation: starlink
LEOCIRCULAR

About Starlink 5577

Description loading...

Live Position

Loading 3D Globe...

Upcoming Passes

Altitude History

Altitude vs Time

uPlot chart will show altitude changes over time

Two-Line Element Set

1 55751U 23028L 25308.08572792 -.00000357 00000-0 -22114-4 0 9997
2 55751 69.9994 201.2382 0002691 270.7808 89.3042 14.98330332147227
Epoch: Nov 4, 2025 • Age: 17 hours

Current Status

Altitude 585.0 km
Velocity 7.57 km/s
Sub-Earth Point -38.72°S, 66.07°E
Launch Date Mar 3, 2023
Age 2.6 years
Type internet

Technical Details

Classification Payload
Mass 305.00 kg
Dry Mass 290.00 kg
Total Mass 305.00 kg
Length 0.20 m
Diameter 2.80 m
Span 9.00 m
Shape Box + pan
Manufacturer SPXS
Bus Type Starlink
Phase Status In Orbit
Owner/State SPXS/US

Large Constellations

Loading constellations...